Weather History for Parkersburg, WV

Change the Weather History Date:

Sunday, January 6, 2013

  Actual Average Record
Temperature  
Mean Temperature 37 °F 32 °F  
Max Temperature 44 °F 40 °F 74 °F (1946)
Min Temperature 30 °F 24 °F -3 °F (1942)
Degree Days  
Heating Degree Days 28 33  
Month to date heating degree days 205 198  
Since 1 July heating degree days 2112 2108  
Cooling Degree Days 0 0  
Month to date cooling degree days 0 0  
Year to date cooling degree days 0 0  
Moisture  
Dew Point 28 °F    
Average Humidity 71    
Maximum Humidity 82    
Minimum Humidity 59    
Precipitation  
Precipitation T in 0.09 in 0.78 in (2009)
Month to date precipitation 0.04 0.57  
Year to date precipitation 0.04 0.57  
Sea Level Pressure  
Sea Level Pressure 30.16 in    
Wind  
Wind Speed 9 mph (WSW)    
Max Wind Speed 17 mph    
Max Gust Speed 25 mph    
Visibility 9 miles    
Events      
T = Trace of Precipitation, MM = Missing Value Source: NWS Daily Summary

Daily Weather History Graph

Daily Weather History Graph

Search for Another Location

Airport:

Trip Planner

Search our weather history database for the weather conditions in past years. The results will help you decide how hot, cold, wet, or windy it might be!

Date:

Astronomy

Jan. 06, 2013 Rise Set
Actual Time 7:45 AM EST 5:17 PM EST
Civil Twilight 7:16 AM EST 5:47 PM EST
Nautical Twilight 6:42 AM EST 6:21 PM EST
Astronomical Twilight 6:10 AM EST 6:53 PM EST
Moon 1:59 AM EST (1/6) 12:43 PM EST (1/6)
Length of Visible Light 10h 31m
Length of Day
9h 31m
Waning Crescent, 33% of the Moon is Illuminated
Jan 6
Waning Crescent
Jan 11
New
Jan 18
First Quarter
Jan 26
Full
Feb 3
Last Quarter

Hourly Weather History & Observations

Time (EST) Temp. Windchill Dew Point Humidity Pressure Visibility Wind Dir Wind Speed Gust Speed Precip Events Conditions
12:53 AM 37.0 °F 32.4 °F 25.0 °F 62% 30.20 in 10.0 mi SSW 5.8 mph - N/A   Overcast
1:53 AM 37.0 °F 34.5 °F 25.0 °F 62% 30.19 in 10.0 mi SSW 3.5 mph - N/A   Overcast
2:53 AM 37.0 °F 32.4 °F 25.0 °F 62% 30.18 in 10.0 mi South 5.8 mph - N/A   Overcast
3:53 AM 36.0 °F 32.1 °F 26.1 °F 67% 30.17 in 10.0 mi South 4.6 mph - N/A   Overcast
4:53 AM 36.0 °F - 25.0 °F 64% 30.15 in - North - - N/A   Overcast
5:53 AM - - - N/A% 30.12 in - North - - N/A   Overcast
6:53 AM - - - N/A% 30.12 in - North - - N/A   Overcast
6:55 AM - - - N/A% 30.12 in 10.0 mi SSW 5.8 mph - N/A   Overcast
7:53 AM - - - N/A% 30.12 in 10.0 mi SSW 5.8 mph - N/A   Overcast
8:53 AM - - - N/A% 30.12 in 10.0 mi SSW 5.8 mph - N/A   Overcast
9:53 AM - - - N/A% 30.13 in 10.0 mi WSW 11.5 mph - N/A   Overcast
10:53 AM - - - N/A% 30.12 in 10.0 mi WSW 11.5 mph - N/A   Overcast
11:53 AM - - - N/A% 30.09 in 10.0 mi WNW 17.3 mph - N/A   Overcast
12:53 PM - - - N/A% 30.06 in 10.0 mi WSW 11.5 mph - N/A   Overcast
1:53 PM - - - N/A% 30.05 in - North - - N/A   Overcast
2:53 PM 41.0 °F 38.0 °F 28.9 °F 62% 30.07 in 10.0 mi SSW 4.6 mph - N/A   Overcast
3:53 PM 41.0 °F 36.4 °F 28.9 °F 62% 30.09 in 10.0 mi SSW 6.9 mph - N/A   Overcast
4:53 PM 41.0 °F 37.1 °F 28.9 °F 62% 30.10 in 10.0 mi SSW 5.8 mph - N/A   Overcast
5:53 PM 41.0 °F 35.2 °F 30.0 °F 65% 30.10 in 10.0 mi WSW 9.2 mph - N/A   Overcast
6:32 PM 37.4 °F 29.8 °F 32.0 °F 81% 30.14 in 7.0 mi WNW 11.5 mph 26.5 mph 0.00 in   Overcast
6:53 PM 37.0 °F 30.4 °F 32.0 °F 82% 30.15 in 10.0 mi West 9.2 mph - 0.00 in   Overcast
7:43 PM 35.6 °F 27.1 °F 30.2 °F 81% 30.18 in 9.0 mi West 12.7 mph 24.2 mph N/A   Overcast
7:53 PM 36.0 °F 26.7 °F 30.9 °F 82% 30.18 in 10.0 mi WNW 15.0 mph 25.3 mph N/A   Overcast
8:48 PM 33.8 °F 26.4 °F 28.4 °F 81% 30.21 in 10.0 mi West 9.2 mph 19.6 mph N/A   Overcast
9:53 PM 33.1 °F 23.9 °F 26.1 °F 75% 30.25 in 8.0 mi West 12.7 mph - N/A   Overcast
10:25 PM 32.0 °F 26.4 °F 26.6 °F 80% 30.27 in 7.0 mi West 5.8 mph - N/A   Overcast
10:53 PM 32.0 °F 22.1 °F 27.0 °F 82% 30.29 in 6.0 mi WNW 13.8 mph 18.4 mph N/A   Haze
11:51 PM 30.2 °F 22.6 °F 24.8 °F 80% 30.32 in 6.0 mi West 8.1 mph - N/A   Haze
11:53 PM 30.0 °F 23.2 °F 24.1 °F 79% 30.32 in 6.0 mi West 6.9 mph - N/A   Haze